sat.trackr.live / text

‹ back to catalog

2024-092H

NORAD 59780 · 2024-092H

PAYLOAD ACTIVE UNKNOWN

§ Identity

Operator
Country
CIS
Launch date
2024-05-16
Launch site
PLMSC
Launch vehicle
Mass (kg)
RCS (m²)

External: N2YO · Heavens-Above · Gunter

§ Orbital elements

Epoch: 2026-09-22T21:58:24.131712Z

Period
100.57 min
Inclination
98.6805°
Eccentricity
0.0011143
Mean motion
14.31877585 rev/d
Perigee alt
777.5 km
Apogee alt
793.4 km
Semi-major
7,163.6 km
B*
4.7494e-5
RAAN
24.8964°
Arg perigee
283.3799°
Mean anomaly
76.6142°
Rev number
12,288

§ Raw data

2024-092H1 59780U 24092H   26265.91555708  .00000082  00000+0  47494-4 0  99982 59780  98.6805  24.8964 0011143 283.3799  76.6142 14.31877585122887

JSON: /api/v1/satellites/59780 · /tle

For live sub-satellite position, see the globe view (requires WebGL).

§ Visibility from observer

Set your observer location to see the next 7 days of passes ≥ 10°. The values pass through the URL so the page stays shareable.

No JS? Fill the form by hand. The geolocation button needs JavaScript.